[Iaude] MPEC R96: 2016 RA18 [a=2.24,e=0.49,i=6.7,H=23.1]

mpec at mpc.eps.harvard.edu mpec at mpc.eps.harvard.edu
Thu Sep 8 23:33:17 EDT 2016


M.P.E.C. 2016-R96                                Issued 2016 Sept.  9, 03:30 UT
 
     The Minor Planet Electronic Circulars contain information on unusual
         minor planets and routine data on comets.  They are published
    on behalf of Division F of the International Astronomical Union by the
          Minor Planet Center, Smithsonian Astrophysical Observatory,
                          Cambridge, MA 02138, U.S.A.

             Prepared using the Tamkin Foundation Computer Network

                              MPC at CFA.HARVARD.EDU
            URL http://www.minorplanetcenter.net/    ISSN 1523-6714


                                   2016 RA18
 
Observations:
     K16R18A* C2016 09 05.40626 23 34 22.97 +20 55 48.1          20.2 VqER096G96
     K16R18A  C2016 09 05.41332 23 34 24.99 +20 55 42.9          20.3 VqER096G96
     K16R18A  C2016 09 05.41689 23 34 25.99 +20 55 41.2          20.6 VqER096G96
     K16R18A  C2016 09 05.49019 23 34 47.14 +20 54 51.6          20.0 VqER096G96
     K16R18A  C2016 09 05.49059 23 34 47.20 +20 54 51.0          20.2 VqER096G96
     K16R18A  C2016 09 05.49101 23 34 47.32 +20 54 50.7          19.6 VqER096G96
     K16R18A  C2016 09 05.49141 23 34 47.45 +20 54 51.2          20.2 VqER096G96
     K16R18A KC2016 09 06.02791 23 37 33.45 +20 49 07.9          20.3 VqER096I93
     K16R18A KC2016 09 06.03585 23 37 35.66 +20 49 02.8          20.6 VqER096I93
     K16R18A KC2016 09 06.04255 23 37 37.56 +20 48 58.9          20.5 VqER096I93
     K16R18A KC2016 09 06.04942 23 37 38.99 +20 48 53.0                tER096104
     K16R18A KC2016 09 06.05311 23 37 40.03 +20 48 50.7          20.4 RtER096104
     K16R18A KC2016 09 06.05679 23 37 41.13 +20 48 47.9          20.1 RtER096104
     K16R18A KC2016 09 06.23401723 38 36.99 +20 46 54.4          20.0 VuER096H21
     K16R18A KC2016 09 06.23692923 38 37.83 +20 46 52.3          20.1 VuER096H21
     K16R18A KC2016 09 06.24153523 38 39.13 +20 46 49.5          20.2 VuER096H21
     K16R18A  C2016 09 06.26747 23 38 47.87 +20 46 37.1          20.5 VqER096G96
     K16R18A  C2016 09 06.28228 23 38 52.09 +20 46 27.9          20.1 VqER096G96
     K16R18A  C2016 09 06.28969 23 38 54.19 +20 46 22.7          20.6 VqER096G96
     K16R18A HC2016 09 06.34872 23 39 11.06 +20 45 43.3          21.6 VoER096691
     K16R18A HC2016 09 06.37127 23 39 17.45 +20 45 26.9          20.8 VoER096691
     K16R18A HC2016 09 06.38118 23 39 20.25 +20 45 20.7          20.8 VoER096691
     K16R18A KC2016 09 07.92360 23 47 15.78 +20 25 15.8          20.0 RoER096461
     K16R18A FC2016 09 07.92552 23 47 16.65 +20 25 13.0          20.1 RqER096246
     K16R18A FC2016 09 07.92593 23 47 16.75 +20 25 12.2                qER096246
     K16R18A FC2016 09 07.92620 23 47 16.79 +20 25 11.7                qER096246
     K16R18A FC2016 09 07.92714 23 47 17.19 +20 25 12.0                qER096246
     K16R18A KC2016 09 07.92829 23 47 17.13 +20 25 11.9          19.7 RoER096461
     K16R18A KC2016 09 07.93293 23 47 18.48 +20 25 08.2          20.3 RoER096461
     K16R18A  C2016 09 08.00039 23 47 38.56 +20 24 08.1          20.9 VSER096033
     K16R18A  C2016 09 08.00277 23 47 39.26 +20 24 06.0          21.1 VSER096033
     K16R18A  C2016 09 08.00513 23 47 39.94 +20 24 03.9          21.1 VSER096033
     K16R18A  C2016 09 08.05951 23 47 55.88 +20 23 16.1          20.7 VSER096033
     K16R18A  C2016 09 08.06187 23 47 56.58 +20 23 14.1          20.8 VSER096033
     K16R18A  C2016 09 08.06425 23 47 57.28 +20 23 12.0          20.5 VSER096033
 
Observer details:
033 Karl Schwarzschild Observatory, Tautenburg.  Observers B. Stecklum,
    C. Hoegner.  Measurer B. Stecklum.  1.34-m f/3 Schmidt + CCD.
104 San Marcello Pistoiese.  Observer P. Bacci.  Measurers P. Bacci, L. Tesi,
    G. Fagioli.  0.60-m f/4 reflector + CCD.
246 Klet Observatory-KLENOT.  Observers M. Tichy, J. Ticha.  Measurer M. Tichy.
    1.06-m KLENOT Telescope + CCD.
461 University of Szeged, Piszkesteto Stn. (Konkoly).  Observer K. Sarneczky.
    0.60-m Schmidt + CCD.
691 Steward Observatory, Kitt Peak.  Observer J. V. Scotti.  0.9-m f/3
    reflector + CCD.
G96 Mt. Lemmon Survey.  Observers R. G. Matheny, D. C. Fuls.  Measurers
    E. J. Christensen, D. C. Fuls, A. R. Gibbs, A. D. Grauer, J. A. Johnson,
    R. A. Kowalski, S. M. Larson, G. J. Leonard, R. G. Matheny, R. L. Seaman,
    F. C. Shelly.  1.5-m reflector + 10K CCD.
H21 Astronomical Research Observatory, Westfield.  Observer R. Holmes.
    Measurers S. Foglia, L. Buzzi, T. Linder, R. Holmes.  0.61-m f/4.5
    astrograph + CCD.
I93 St Pardon de Conques.  Observer F. Losse.  0.40-m f/3.7 reflector + CCD.
 
Orbital elements:
2016 RA18                                                Earth MOID = 0.1411 AU
Epoch 2016 July 31.0 TT = JDT 2457600.5                 MPC
M 346.89938              (2000.0)            P               Q
n   0.29323094     Peri.  162.65054     +0.99312186     +0.11504666
a   2.2438622      Node   190.81281     -0.11638667     +0.94974190
e   0.4909800      Incl.    6.65889     -0.01277125     +0.29112640
P   3.36           H   23.1           G   0.15           U   8
Residuals in seconds of arc
160905 G96  0.1-  0.2+    160906 104  0.0   0.4-    160907 246  0.4+  0.2-
160905 G96  0.1+  0.4-    160906 H21  0.0   0.0     160907 246  0.1-  0.5-
160905 G96  0.1-  0.2+    160906 H21  0.1+  0.2-    160907 246  1.6+  0.6+
160905 G96  0.7+  0.1+    160906 H21  0.2-  0.1+    160907 461  0.6-  0.2+
160905 G96  0.1-  0.2-    160906 G96  0.2-  0.2-    160907 461  0.6-  0.3+
160905 G96  0.1-  0.2-    160906 G96  0.3-  0.2+    160908 033  0.2-  0.0
160905 G96  0.1+  0.6+    160906 G96  0.4-  0.2-    160908 033  0.2-  0.1-
160906 I93  0.8+  0.1-    160906 691  0.4+  0.0     160908 033  0.3-  0.1-
160906 I93  0.1-  0.1+    160906 691  0.2+  0.4-    160908 033  0.1-  0.2-
160906 I93  0.4-  0.6+    160906 691  0.1-  0.5+    160908 033  0.0   0.1-
160906 104  0.3-  0.4-    160907 461  0.3-  0.2+    160908 033  0.0   0.1-
160906 104  0.6-  0.1-    160907 246  0.7+  0.2+

Ephemeris:
2016 RA18                a,e,i = 2.24, 0.49, 7                   q = 1.1422
Date    TT    R. A. (2000) Decl.     Delta      r     Elong.  Phase     V
2016 08 10    21 51 52.6 +17 39 15   0.2245  1.2061   145.9    28.1    21.5
...
2016 08 25    22 41 37.4 +21 07 08   0.1764  1.1634   147.5    27.8    20.9
...
2016 09 02    23 17 32.0 +21 20 16   0.1598  1.1497   149.7    26.3    20.6
...
2016 09 08    23 47 38.3 +20 24 38   0.1520  1.1440   152.0    24.4    20.4
2016 09 09    23 52 47.5 +20 09 34   0.1512  1.1434   152.5    24.0    20.4
2016 09 10    23 57 57.4 +19 52 53   0.1504  1.1429   152.9    23.6    20.4
...
2016 09 16    00 28 36.7 +17 41 33   0.1486  1.1425   155.8    21.1    20.3
...
2016 09 24    01 05 44.9 +13 45 56   0.1531  1.1480   159.8    17.6    20.2
...
2016 10 09    01 54 46.9 +06 05 16   0.1827  1.1769   166.0    11.8    20.5

A. U. Tomatic                (C) Copyright 2016 MPC           M.P.E.C. 2016-R96




More information about the Iaude mailing list